Hillsdale, MI

7:35 AM EST on November 19, 2019 (GMT -0500)
Hillsdale Municipal

Weather History for KJYM - September, 2019

Change the Weather History Date:

Thursday, September 19, 2019

  Actual Average Record
Temperature  
Mean Temperature 66 °F -  
Max Temperature 78 °F 72 °F 90 °F (1955)
Min Temperature 54 °F 49 °F 32 °F (2006)
Cooling Degree Days 1    
Growing Degree Days 16 (Base 50)    
Moisture  
Dew Point 53 °F    
Average Humidity 66    
Maximum Humidity 90    
Minimum Humidity 40    
Precipitation  
Precipitation 0.00 in - - ()
Sea Level Pressure  
Sea Level Pressure 30.15 in    
Wind  
Wind Speed 5 mph ()    
Max Wind Speed 9 mph    
Max Gust Speed -    
Visibility 10.0 miles    
Events      
Averages and records for this station are not official NWS values.
T = Trace of Precipitation, MM = Missing Value Source: Averaged Metar Reports

Daily Weather History Graph

Daily Weather History Graph

Search for Another Location

Airport or City:

Astronomy

Sep. 19, 2019 Rise Set
Actual Time 7:22 AM EDT 7:41 PM EDT
Civil Twilight 6:54 AM EDT 8:09 PM EDT
Nautical Twilight 6:21 AM EDT 8:41 PM EDT
Astronomical Twilight 5:48 AM EDT 9:15 PM EDT
Moon 10:45 PM EDT 12:29 PM EDT
Length of Visible Light 13h 14m
Length of Day
12h 18m
Waning Gibbous, 74% of the Moon is Illuminated
Sep 19
Waning Gibbous
Sep 21
Last Quarter
Sep 28
New
Oct 5
First Quarter
Oct 13
Full

Hourly Weather History & Observations

Time (EDT) Temp. Dew Point Humidity Pressure Visibility Wind Dir Wind Speed Gust Speed Precip Events Conditions
12:17 AM 61.9 °F 57.7 °F 86% 30.17 in 10.0 mi ESE 6.9 mph - N/A   Mostly Cloudy
12:35 AM 61.9 °F 57.9 °F 87% 30.17 in 10.0 mi ESE 6.9 mph - N/A   Mostly Cloudy
12:55 AM 62.1 °F 57.6 °F 85% 30.17 in 10.0 mi ESE 6.9 mph - N/A   Overcast
12:56 AM 62.1 °F 57.6 °F 85% 30.17 in 10.0 mi ESE 6.9 mph - N/A   Overcast
1:15 AM 61.7 °F 57.2 °F 85% 30.17 in 10.0 mi ESE 8.1 mph - N/A   Overcast
1:20 AM 61.7 °F 57.0 °F 85% 30.17 in 10.0 mi ESE 8.1 mph - N/A   Mostly Cloudy
1:38 AM 61.7 °F 56.3 °F 82% 30.17 in 10.0 mi ESE 9.2 mph - N/A   Mostly Cloudy
1:56 AM 61.3 °F 55.4 °F 81% 30.17 in 10.0 mi ESE 8.1 mph - N/A   Mostly Cloudy
2:15 AM 60.8 °F 54.5 °F 80% 30.17 in 10.0 mi ESE 5.8 mph - N/A   Mostly Cloudy
2:16 AM 60.8 °F 54.5 °F 80% 30.17 in 10.0 mi ESE 5.8 mph - N/A   Mostly Cloudy
2:35 AM 60.8 °F 53.6 °F 77% 30.17 in 10.0 mi ESE 4.6 mph - N/A   Mostly Cloudy
2:36 AM 60.6 °F 53.6 °F 78% 30.17 in 10.0 mi ESE 4.6 mph - N/A   Mostly Cloudy
2:59 AM 60.1 °F 53.1 °F 78% 30.17 in 10.0 mi ESE 4.6 mph - N/A   Overcast
3:17 AM 59.5 °F 52.7 °F 78% 30.17 in 10.0 mi ESE 4.6 mph - N/A   Mostly Cloudy
3:35 AM 59.5 °F 52.0 °F 76% 30.17 in 10.0 mi ESE 4.6 mph - N/A   Overcast
3:36 AM 59.4 °F 52.0 °F 77% 30.17 in 10.0 mi ESE 4.6 mph - N/A   Overcast
3:55 AM 59.2 °F 51.4 °F 75% 30.17 in 10.0 mi SE 5.8 mph - N/A   Overcast
3:56 AM 59.2 °F 51.4 °F 75% 30.17 in 10.0 mi ESE 5.8 mph - N/A   Overcast
4:15 AM 59.0 °F 50.9 °F 74% 30.16 in 10.0 mi ESE 4.6 mph - N/A   Overcast
4:38 AM 58.5 °F 50.0 °F 73% 30.16 in 10.0 mi ESE 5.8 mph - N/A   Mostly Cloudy
4:56 AM 58.1 °F 49.8 °F 74% 30.16 in 10.0 mi ESE 4.6 mph - N/A   Mostly Cloudy
5:15 AM 58.1 °F 49.3 °F 72% 30.16 in 10.0 mi ESE 3.5 mph - N/A   Mostly Cloudy
5:16 AM 58.1 °F 49.3 °F 72% 30.16 in 10.0 mi ESE 3.5 mph - N/A   Mostly Cloudy
5:35 AM 56.8 °F 49.1 °F 75% 30.16 in 10.0 mi ESE 3.5 mph - N/A   Scattered Clouds
5:59 AM 56.1 °F 48.9 °F 77% 30.16 in 10.0 mi Calm Calm - N/A   Clear
6:16 AM 54.3 °F 49.3 °F 83% 30.15 in 10.0 mi East 3.5 mph - N/A   Clear
6:35 AM 55.6 °F 48.6 °F 77% 30.15 in 10.0 mi ESE 3.5 mph - N/A   Clear
6:36 AM 55.6 °F 48.6 °F 77% 30.15 in 10.0 mi ESE 4.6 mph - N/A   Clear
6:55 AM 55.4 °F 48.4 °F 77% 30.16 in 10.0 mi ESE 4.6 mph - N/A   Clear
7:15 AM 55.6 °F 48.2 °F 76% 30.15 in 10.0 mi East 5.8 mph - N/A   Clear
7:38 AM 56.3 °F 47.8 °F 73% 30.16 in 10.0 mi ESE 5.8 mph - N/A   Clear
7:56 AM 56.8 °F 48.2 °F 73% 30.16 in 10.0 mi ESE 5.8 mph - N/A   Clear
8:15 AM 58.3 °F 48.2 °F 69% 30.16 in 10.0 mi ESE 4.6 mph - N/A   Clear
8:16 AM 58.3 °F 48.2 °F 69% 30.16 in 10.0 mi ESE 4.6 mph - N/A   Clear
8:35 AM 58.3 °F 48.9 °F 71% 30.16 in 10.0 mi ESE 4.6 mph - N/A   Clear
8:36 AM 58.5 °F 48.9 °F 71% 30.16 in 10.0 mi ESE 4.6 mph - N/A   Clear
8:59 AM 60.8 °F 49.5 °F 66% 30.16 in 10.0 mi ESE 4.6 mph - N/A   Clear
9:17 AM 62.8 °F 49.6 °F 62% 30.16 in 10.0 mi SE 4.6 mph - N/A   Clear
9:35 AM 63.5 °F 49.6 °F 61% 30.17 in 10.0 mi SSE 5.8 mph - N/A   Clear
9:36 AM 63.5 °F 49.6 °F 61% 30.17 in 10.0 mi SE 6.9 mph - N/A   Clear
9:55 AM 63.3 °F 50.4 °F 63% 30.17 in 10.0 mi SE 3.5 mph - N/A   Clear
9:56 AM 63.3 °F 50.2 °F 62% 30.17 in 10.0 mi SE 3.5 mph - N/A   Clear
10:15 AM 64.0 °F 51.1 °F 63% 30.18 in 10.0 mi Calm Calm - N/A   Clear
10:20 AM 64.9 °F 51.1 °F 61% 30.18 in 10.0 mi ESE 3.5 mph - N/A   Clear
10:38 AM 66.0 °F 51.4 °F 59% 30.18 in 10.0 mi Calm Calm - N/A   Clear
10:56 AM 66.9 °F 50.9 °F 56% 30.18 in 10.0 mi Calm Calm - N/A   Clear
11:15 AM 69.1 °F 50.7 °F 52% 30.18 in 10.0 mi Calm Calm - N/A   Clear
11:16 AM 69.1 °F 50.9 °F 52% 30.18 in 10.0 mi Calm Calm - N/A   Clear
11:35 AM 70.5 °F 51.8 °F 51% 30.18 in 10.0 mi Calm Calm - N/A   Clear
11:36 AM 70.5 °F 51.6 °F 51% 30.18 in 10.0 mi Calm Calm - N/A   Clear
11:59 AM 71.6 °F 52.9 °F 52% 30.17 in 10.0 mi Calm Calm - N/A   Clear
12:17 PM 73.4 °F 54.1 °F 51% 30.17 in 10.0 mi Calm Calm - N/A   Clear
12:35 PM 74.3 °F 54.1 °F 49% 30.17 in 10.0 mi South 3.5 mph - N/A   Clear
12:36 PM 74.3 °F 54.1 °F 49% 30.17 in 10.0 mi Calm Calm - N/A   Clear
12:55 PM 74.8 °F 53.4 °F 47% 30.16 in 10.0 mi Calm Calm - N/A   Clear
12:56 PM 74.7 °F 53.4 °F 47% 30.16 in 10.0 mi Calm Calm - N/A   Clear
1:15 PM 75.2 °F 53.8 °F 47% 30.16 in 10.0 mi SE 4.6 mph - N/A   Clear
1:38 PM 75.6 °F 53.4 °F 46% 30.15 in 10.0 mi East 5.8 mph - N/A   Clear
1:56 PM 76.6 °F 54.7 °F 46% 30.14 in 10.0 mi SE 4.6 mph - N/A   Clear
2:15 PM 76.6 °F 53.6 °F 45% 30.14 in 10.0 mi South 6.9 mph - N/A   Clear
2:16 PM 76.6 °F 53.4 °F 44% 30.14 in 10.0 mi SSE 6.9 mph - N/A   Clear
2:35 PM 76.6 °F 52.7 °F 43% 30.14 in 10.0 mi South 6.9 mph - N/A   Clear
2:36 PM 76.8 °F 52.2 °F 42% 30.14 in 10.0 mi South 6.9 mph - N/A   Clear
2:59 PM 76.8 °F 51.3 °F 41% 30.14 in 10.0 mi SE 5.8 mph - N/A   Clear
3:17 PM 77.0 °F 50.7 °F 40% 30.13 in 10.0 mi SE 5.8 mph - N/A   Clear
3:35 PM 77.2 °F 52.7 °F 42% 30.13 in 10.0 mi South 4.6 mph - N/A   Clear
3:55 PM 78.1 °F 53.8 °F 43% 30.13 in 10.0 mi ESE 5.8 mph - N/A   Clear
3:56 PM 78.1 °F 53.4 °F 42% 30.13 in 10.0 mi SE 5.8 mph - N/A   Clear
4:15 PM 77.2 °F 54.5 °F 45% 30.12 in 10.0 mi SE 5.8 mph - N/A   Clear
4:20 PM 77.2 °F 53.8 °F 44% 30.12 in 10.0 mi South 3.5 mph - N/A   Clear
4:38 PM 77.2 °F 52.3 °F 42% 30.12 in 10.0 mi SE 4.6 mph - N/A   Clear
4:56 PM 77.4 °F 53.1 °F 43% 30.12 in 10.0 mi SE 6.9 mph - N/A   Clear
5:15 PM 77.2 °F 54.7 °F 46% 30.12 in 10.0 mi SSE 4.6 mph - N/A   Clear
5:16 PM 77.2 °F 54.7 °F 46% 30.12 in 10.0 mi SE 5.8 mph - N/A   Clear
5:35 PM 77.2 °F 54.9 °F 46% 30.12 in 10.0 mi SSE 3.5 mph - N/A   Clear
5:36 PM 77.0 °F 55.0 °F 47% 30.12 in 10.0 mi Calm Calm - N/A   Clear
5:59 PM 76.3 °F 54.5 °F 47% 30.12 in 10.0 mi SE 6.9 mph - N/A   Clear
6:17 PM 76.1 °F 55.8 °F 49% 30.12 in 10.0 mi SE 5.8 mph - N/A   Clear
6:35 PM 75.2 °F 54.9 °F 49% 30.12 in 10.0 mi SE 3.5 mph - N/A   Clear
6:36 PM 75.0 °F 55.0 °F 50% 30.12 in 10.0 mi SE 3.5 mph - N/A   Clear
6:55 PM 73.6 °F 55.9 °F 54% 30.11 in 10.0 mi SE 3.5 mph - N/A   Clear
7:15 PM 70.7 °F 56.7 °F 61% 30.12 in 10.0 mi Calm Calm - N/A   Clear
7:20 PM 68.7 °F 57.2 °F 67% 30.12 in 10.0 mi Calm Calm - N/A   Clear
7:38 PM 65.3 °F 59.0 °F 80% 30.12 in 10.0 mi Calm Calm - N/A   Clear
7:56 PM 64.4 °F 58.1 °F 80% 30.12 in 10.0 mi Calm Calm - N/A   Clear
8:15 PM 62.1 °F 56.8 °F 83% 30.12 in 10.0 mi Calm Calm - N/A   Clear
8:35 PM 62.6 °F 58.5 °F 86% 30.13 in 10.0 mi Calm Calm - N/A   Clear
8:36 PM 62.8 °F 58.5 °F 86% 30.13 in 10.0 mi Calm Calm - N/A   Clear
8:59 PM 61.3 °F 57.6 °F 87% 30.13 in 10.0 mi East 3.5 mph - N/A   Scattered Clouds
9:17 PM 61.2 °F 57.6 °F 88% 30.13 in 10.0 mi East 5.8 mph - N/A   Scattered Clouds
9:35 PM 61.0 °F 57.6 °F 88% 30.13 in 10.0 mi East 4.6 mph - N/A   Scattered Clouds
9:55 PM 64.6 °F 59.2 °F 83% 30.13 in 10.0 mi ESE 6.9 mph - N/A   Mostly Cloudy
10:15 PM 64.4 °F 59.5 °F 84% 30.14 in 10.0 mi East 6.9 mph - N/A   Mostly Cloudy
10:20 PM 64.4 °F 59.7 °F 85% 30.14 in 10.0 mi East 5.8 mph - N/A   Mostly Cloudy
10:38 PM 64.4 °F 59.7 °F 85% 30.14 in 10.0 mi East 4.6 mph - N/A   Scattered Clouds
10:56 PM 62.8 °F 59.0 °F 87% 30.14 in 10.0 mi ESE 3.5 mph - N/A   Scattered Clouds
11:15 PM 62.6 °F 59.0 °F 88% 30.13 in 10.0 mi ESE 5.8 mph - N/A   Scattered Clouds
11:35 PM 62.8 °F 59.2 °F 88% 30.13 in 10.0 mi East 4.6 mph - N/A   Mostly Cloudy
11:59 PM 62.4 °F 59.5 °F 90% 30.13 in 10.0 mi East 3.5 mph - N/A   Mostly Cloudy